FW3769 Weather Reports


time (UTC)temp
F
wind
direction
speed
knots
gust
knots
rain 1hr
in
rain 24hr
in
rain mn
in
humidity
%
barometer
mb
20260505124742 41 149 0.0 0.0 0.00 0.00 0.00 83 1015.9
20260505124239 41 159 0.0 0.0 0.00 0.00 0.00 82 1015.9
20260505123735 41 186 0.0 0.0 0.00 0.00 0.00 82 1015.9
20260505123232 42 102 0.0 0.0 0.00 0.00 0.00 82 1015.9
20260505122728 42 152 0.0 0.0 0.00 0.00 0.00 81 1015.0
20260505122225 42 180 0.0 0.0 0.00 0.00 0.00 81 1015.0
20260505121722 42 159 0.0 0.0 0.00 0.00 0.00 80 1015.0
20260505121219 42 179 0.0 0.0 0.00 0.00 0.00 80 1015.4
20260505120715 42 264 0.0 0.0 0.00 0.00 0.00 79 1015.4
20260505120211 42 158 0.0 0.0 0.00 0.00 0.00 78 1015.4
20260505115705 42 139 0.0 0.0 0.00 0.00 0.00 79 1015.4
20260505115203 42 133 0.0 0.0 0.00 0.00 0.00 80 1015.4
20260505114700 42 192 0.0 0.0 0.00 0.00 0.00 81 1015.4
20260505114155 42 204 0.0 0.0 0.00 0.00 0.00 80 1015.0
20260505113652 42 204 0.0 0.0 0.00 0.00 0.00 80 1015.0
20260505113149 42 174 0.0 0.0 0.00 0.00 0.00 79 1015.0
20260505112645 42 152 0.0 0.0 0.00 0.00 0.00 79 1015.0
20260505112143 42 158 0.0 0.0 0.00 0.00 0.00 79 1015.0
20260505111642 42 178 0.0 0.0 0.00 0.00 0.00 80 1015.0
20260505111139 42 223 0.0 0.0 0.00 0.00 0.00 82 1015.0
20260505110635 42 143 0.0 0.0 0.00 0.00 0.00 83 1015.0
20260505110133 42 162 0.0 0.0 0.00 0.00 0.00 84 1015.0
20260505102108 42 159 0.0 0.0 0.00 0.00 0.00 89 1014.6
20260505101607 42 146 0.0 0.0 0.00 0.00 0.00 89 1014.6
20260505101103 42 159 0.0 0.0 0.00 0.00 0.00 90 1015.0
20260505100559 42 96 0.0 0.0 0.00 0.00 0.00 90 1015.0
20260505100056 42 165 0.0 0.0 0.00 0.00 0.00 91 1015.0
20260505095552 42 133 0.0 0.0 0.00 0.00 0.00 91 1015.0
20260505095049 42 90 0.0 0.0 0.00 0.00 0.00 90 1015.0
20260505094545 42 29 0.0 0.0 0.00 0.00 0.00 89 1015.0
20260505094042 42 1 0.0 0.0 0.00 0.00 0.00 89 1014.6
20260505093538 42 246 0.0 0.0 0.00 0.00 0.00 89 1014.6
20260505093035 42 204 0.0 0.0 0.00 0.00 0.00 89 1015.0
20260505092533 42 119 0.0 0.0 0.00 0.00 0.00 89 1015.0
20260505092032 42 156 0.0 0.0 0.00 0.00 0.00 89 1015.0
20260505091528 42 108 0.0 0.0 0.00 0.00 0.00 89 1014.6
20260505091027 42 225 0.0 0.0 0.00 0.00 0.00 90 1014.6
20260505090524 43 162 0.0 0.0 0.00 0.00 0.00 91 1014.6
20260505090022 43 168 0.0 0.0 0.00 0.00 0.00 91 1015.0
20260505085519 43 169 0.0 0.0 0.00 0.00 0.00 92 1015.0
20260505085017 43 71 0.0 0.0 0.00 0.00 0.00 92 1015.0
20260505084515 43 90 0.0 0.0 0.00 0.00 0.00 92 1015.4
20260505084013 43 273 0.0 0.0 0.00 0.00 0.00 92 1015.4
20260505083510 43 84 0.0 0.0 0.00 0.00 0.00 92 1015.4
20260505083006 43 29 0.0 0.0 0.00 0.00 0.00 92 1015.4
20260505082502 43 355 0.0 0.0 0.00 0.00 0.00 92 1015.4
20260505081959 43 28 0.0 0.0 0.00 0.00 0.00 92 1015.4
20260505081455 43 29 0.0 0.0 0.00 0.00 0.00 92 1015.4
20260505080952 43 336 0.0 0.0 0.00 0.00 0.00 92 1015.4
20260505080448 43 331 0.0 0.0 0.00 0.00 0.00 92 1015.4
20260505075944 44 334 0.0 0.0 0.00 0.00 0.00 92 1015.9
20260505075441 43 279 0.0 0.0 0.00 0.00 0.00 92 1015.9
20260505074938 43 324 0.0 0.0 0.00 0.00 0.00 92 1015.9
20260505074436 43 6 0.0 0.0 0.00 0.00 0.00 92 1015.9
20260505073933 43 348 0.0 0.0 0.00 0.00 0.00 92 1015.9
20260505073430 43 12 0.0 0.0 0.00 0.00 0.00 92 1015.9
20260505072927 43 12 0.0 0.0 0.00 0.00 0.00 92 1016.2
20260505072423 43 6 0.0 0.0 0.00 0.00 0.00 92 1016.2
20260505071920 43 48 0.0 0.0 0.00 0.00 0.00 91 1016.2
20260505071415 43 0 0.0 0.0 0.00 0.00 0.00 91 1015.9
20260505070914 43 2 0.0 0.0 0.00 0.00 0.00 91 1015.9
20260505070410 43 48 0.0 0.0 0.00 0.00 0.00 91 1015.9
20260505065906 44 46 0.0 0.0 0.00 0.00 0.00 90 1015.9
20260505065403 44 2 0.0 0.0 0.00 0.00 0.00 90 1015.9
20260505064859 44 26 0.0 0.0 0.00 0.00 0.00 90 1015.9
20260505064357 44 3 0.0 0.0 0.00 0.00 0.00 90 1016.2
20260505063855 44 35 0.0 0.0 0.00 0.00 0.00 89 1016.2
20260505063355 44 0 0.0 0.0 0.00 0.00 0.00 89 1016.2
20260505062852 44 331 0.0 0.0 0.00 0.00 0.00 90 1015.9
20260505062350 44 6 0.0 0.0 0.00 0.00 0.00 90 1015.9
20260505061846 44 1 0.0 0.0 0.00 0.00 0.00 90 1015.9
20260505061344 44 2 0.0 0.0 0.00 0.00 0.00 89 1016.2
20260505060842 44 18 0.0 0.0 0.00 0.00 0.00 88 1016.2
20260505060338 44 22 0.0 0.0 0.00 0.00 0.00 88 1016.2
20260505055834 44 11 0.0 0.0 0.01 0.01 0.01 87 1016.2
20260505055330 44 348 0.0 0.0 0.01 0.01 0.01 86 1016.2
20260505054828 44 352 0.0 0.0 0.01 0.01 0.01 86 1016.2
20260505054325 44 0 0.0 0.0 0.01 0.01 0.01 84 1016.2
20260505053823 45 42 0.0 0.0 0.01 0.01 0.01 83 1016.2
20260505053320 45 10 0.0 0.0 0.01 0.01 0.01 82 1016.2
20260505052817 45 353 0.0 0.0 0.00 0.00 0.00 82 1016.7
20260505052314 45 7 0.0 0.0 0.00 0.00 0.00 81 1016.7
20260505051811 45 356 0.0 0.0 0.00 0.00 0.00 81 1016.7
20260505051308 45 6 0.0 0.0 0.00 0.00 0.00 81 1016.2
20260505050806 45 7 0.0 0.0 0.00 0.00 0.00 80 1016.2
20260505050305 45 25 0.0 0.0 0.00 0.00 0.00 81 1016.2
20260505041734 45 341 0.0 0.0 0.00 0.00 0.00 79 1015.4
20260505041231 45 334 0.0 0.0 0.00 0.00 0.00 80 1015.4
20260505040729 45 1 0.0 0.0 0.00 0.00 0.00 79 1015.4
20260505040226 45 9 0.0 0.0 0.00 0.00 0.00 79 1015.4
20260505035723 45 356 0.0 0.0 0.00 0.00 0.00 79 1015.0
20260505035219 45 348 0.0 0.0 0.00 0.00 0.00 81 1015.0
20260505034716 45 13 0.0 0.0 0.00 0.00 0.00 82 1015.0
20260505034213 46 24 0.0 0.0 0.00 0.00 0.00 80 1015.4
20260505033709 46 76 0.0 0.0 0.00 0.00 0.00 79 1015.4
20260505033207 46 298 0.0 0.0 0.00 0.00 0.00 78 1015.4
20260505032705 46 311 0.0 0.0 0.00 0.00 0.00 80 1015.4
20260505032200 46 6 0.0 0.0 0.00 0.00 0.00 81 1015.4
20260505031658 46 24 0.0 0.0 0.00 0.00 0.00 80 1015.4
20260505031154 46 330 0.0 0.0 0.00 0.00 0.00 80 1015.4
20260505030651 46 336 0.0 0.0 0.00 0.00 0.00 81 1015.4
20260505030147 46 3 0.0 0.0 0.00 0.00 0.00 81 1015.4
20260505025643 46 324 0.0 0.0 0.00 0.00 0.00 81 1015.0
20260505025142 46 354 0.0 0.0 0.00 0.00 0.00 82 1015.0
20260505024639 46 34 0.0 0.0 0.00 0.00 0.00 81 1015.0
20260505024136 46 344 0.0 0.0 0.00 0.00 0.00 81 1015.0
20260505023634 46 2 0.0 0.0 0.00 0.00 0.00 81 1015.0
20260505023131 46 343 0.0 0.0 0.00 0.00 0.00 80 1015.0
20260505022628 46 25 0.0 0.0 0.00 0.00 0.00 80 1015.0
20260505022125 46 341 0.0 0.0 0.00 0.00 0.00 79 1015.0
20260505021621 46 348 0.0 0.0 0.00 0.00 0.00 80 1015.0
20260505021118 46 0 0.0 0.0 0.00 0.00 0.00 77 1015.4
20260505020614 46 6 0.0 0.0 0.00 0.00 0.00 76 1015.4
20260505020110 46 98 0.0 0.0 0.00 0.00 0.00 77 1015.4
20260505015608 46 6 0.0 0.0 0.00 0.00 0.00 77 1015.0
20260505015104 46 18 0.0 0.0 0.00 0.00 0.00 77 1015.0
20260505014601 46 36 0.0 0.0 0.00 0.00 0.00 76 1015.0
20260505014058 48 343 0.0 0.0 0.00 0.00 0.00 71 1015.0
20260505013555 50 6 0.0 0.0 0.00 0.00 0.00 62 1015.0
20260505013053 51 12 0.0 0.0 0.00 0.00 0.00 61 1015.0
20260505012550 52 326 0.0 0.0 0.00 0.00 0.00 55 1015.0
20260505012047 52 320 0.0 0.0 0.00 0.00 0.00 54 1015.0
20260505011543 53 23 0.0 0.0 0.00 0.00 0.00 54 1014.1
20260505011040 53 0 0.0 0.0 0.00 0.00 0.00 48 1014.1
20260505010535 53 0 0.0 0.0 0.00 0.00 0.00 48 1014.1
20260505010032 53 354 0.0 0.0 0.00 0.00 0.00 48 1013.8
20260505005529 54 333 0.0 0.0 0.00 0.00 0.00 47 1013.8
20260505005026 54 348 0.0 0.0 0.00 0.00 0.00 46 1013.8
20260505004523 55 59 0.0 0.0 0.00 0.00 0.00 45 1013.3
20260505004020 55 348 0.0 0.0 0.00 0.00 0.00 43 1013.3
20260505003517 55 78 0.0 0.0 0.00 0.00 0.00 43 1013.3
20260505003014 55 12 0.0 0.0 0.00 0.00 0.00 42 1012.9
20260505002509 56 348 0.0 0.0 0.00 0.00 0.00 41 1012.9
20260505002008 56 348 0.0 0.0 0.00 0.00 0.00 40 1012.9
20260505001505 57 330 0.0 0.0 0.00 0.00 0.00 39 1012.1
20260505001002 57 58 0.0 0.0 0.00 0.00 0.00 39 1012.1
20260505000500 58 36 0.0 0.0 0.00 0.00 0.00 38 1012.1
20260504235957 59 354 0.0 0.0 0.00 0.00 0.00 37 1012.5
20260504235454 59 312 0.0 0.0 0.00 0.00 0.00 36 1012.5
20260504234950 60 24 0.0 0.0 0.00 0.00 0.00 35 1012.5
20260504234448 60 24 0.0 0.0 0.00 0.00 0.00 35 1012.5
20260504233944 60 60 0.0 0.0 0.00 0.00 0.00 35 1012.5
20260504233440 60 18 0.0 0.0 0.00 0.00 0.00 35 1012.5
20260504232937 60 336 0.0 0.0 0.00 0.00 0.00 36 1012.9
20260504232434 61 344 0.0 0.0 0.00 0.00 0.00 35 1012.9
20260504231931 61 348 0.0 0.0 0.00 0.00 0.00 34 1012.9
20260504231427 61 18 0.0 0.0 0.00 0.00 0.00 34 1012.5
20260504230924 60 328 0.0 0.0 0.00 0.00 0.00 35 1012.5
20260504230421 60 348 0.0 0.0 0.00 0.00 0.00 35 1012.5
20260504225920 60 12 0.0 0.0 0.00 0.00 0.00 35 1012.9
20260504225416 60 316 0.0 0.0 0.00 0.00 0.00 34 1012.9
20260504224914 60 348 0.0 0.0 0.00 0.00 0.00 34 1012.9
20260504224410 60 40 0.0 0.0 0.00 0.00 0.00 35 1012.5
20260504223907 61 324 0.0 0.0 0.00 0.00 0.00 33 1012.5
20260504223402 61 108 0.0 0.0 0.00 0.00 0.00 34 1012.5
20260504222859 62 168 0.0 0.0 0.00 0.00 0.00 34 1012.5
20260504222356 62 259 0.0 0.0 0.00 0.00 0.00 30 1012.5
20260504221854 62 79 0.0 0.0 0.00 0.00 0.00 31 1012.5
20260504221350 62 276 0.0 0.0 0.00 0.00 0.00 32 1012.5
20260504220848 63 216 0.0 0.0 0.00 0.00 0.00 31 1012.5
20260504220344 63 174 0.0 0.0 0.00 0.00 0.00 29 1012.5
20260504215842 62 126 0.0 0.0 0.00 0.00 0.00 28 1012.5
20260504215338 62 156 0.0 0.0 0.00 0.00 0.00 29 1012.5
20260504214834 63 150 0.0 0.0 0.00 0.00 0.00 28 1012.5
20260504214331 62 116 0.0 0.0 0.00 0.00 0.00 28 1012.5
20260504213828 62 282 0.0 0.0 0.00 0.00 0.00 29 1012.5
20260504213323 61 348 0.0 0.0 0.00 0.00 0.00 31 1012.5
20260504212821 61 334 0.0 0.0 0.00 0.00 0.00 32 1012.1
20260504212317 63 282 0.0 0.0 0.00 0.00 0.00 27 1012.1
20260504211815 63 312 0.0 0.0 0.00 0.00 0.00 26 1012.1
20260504211311 63 46 0.0 0.0 0.00 0.00 0.00 27 1012.1
20260504210809 64 0 0.0 0.0 0.00 0.00 0.00 26 1012.1
20260504210306 64 354 0.0 0.0 0.00 0.00 0.00 26 1012.1
20260504205803 65 336 0.0 0.0 0.00 0.00 0.00 25 1012.1
20260504205300 66 12 0.0 0.0 0.00 0.00 0.00 24 1012.1
20260504204758 67 348 0.0 0.0 0.00 0.00 0.00 24 1012.1
20260504204256 67 214 0.0 0.0 0.00 0.00 0.00 22 1012.5
20260504203755 67 330 0.0 0.0 0.00 0.00 0.00 23 1012.5
20260504203252 67 245 0.0 0.0 0.00 0.00 0.00 24 1012.5
20260504202747 66 258 0.0 0.0 0.00 0.00 0.00 22 1012.9
20260504202244 66 193 0.0 0.0 0.00 0.00 0.00 22 1012.9
20260504201741 65 220 0.0 0.0 0.00 0.00 0.00 23 1012.9
20260504201238 65 282 0.0 0.0 0.00 0.00 0.00 24 1012.5
20260504200737 65 222 0.0 0.0 0.00 0.00 0.00 24 1012.5
20260504200232 66 324 0.0 0.0 0.00 0.00 0.00 24 1012.5
20260504195729 66 72 0.0 0.0 0.00 0.00 0.00 24 1012.9
20260504195225 66 18 0.0 0.0 0.00 0.00 0.00 23 1012.9
20260504194722 65 78 0.0 0.0 0.00 0.00 0.00 24 1012.9
20260504194218 64 168 0.0 0.0 0.00 0.00 0.00 22 1012.9
20260504193714 65 246 0.0 0.0 0.00 0.00 0.00 23 1012.9
20260504193212 65 341 0.0 0.0 0.00 0.00 0.00 22 1012.9
20260504192710 66 108 0.0 0.0 0.00 0.00 0.00 20 1012.9
20260504192208 66 330 0.0 0.0 0.00 0.00 0.00 21 1012.9
20260504191706 67 186 0.0 0.0 0.00 0.00 0.00 20 1012.9
20260504191203 67 172 0.0 0.0 0.00 0.00 0.00 19 1012.9
20260504190658 67 226 0.0 0.0 0.00 0.00 0.00 19 1012.9
20260504190155 67 216 0.0 0.0 0.00 0.00 0.00 18 1012.9
20260504185651 69 257 0.0 0.0 0.00 0.00 0.00 19 1013.3
20260504185147 68 149 0.0 0.0 0.00 0.00 0.00 18 1013.3
20260504184643 67 192 0.0 0.0 0.00 0.00 0.00 20 1013.3
20260504184133 66 144 0.0 0.0 0.00 0.00 0.00 19 1013.3
20260504183630 68 194 0.0 0.0 0.00 0.00 0.00 18 1013.3
20260504183128 68 234 0.0 0.0 0.00 0.00 0.00 19 1013.3
20260504182625 68 132 0.0 0.0 0.00 0.00 0.00 19 1013.8
20260504182123 68 300 0.0 0.0 0.00 0.00 0.00 18 1013.8
20260504181620 69 132 0.0 0.0 0.00 0.00 0.00 17 1013.8
20260504181117 68 181 0.0 0.0 0.00 0.00 0.00 20 1013.8
20260504180617 68 181 0.0 0.0 0.00 0.00 0.00 19 1013.8
20260504180115 67 210 0.0 0.0 0.00 0.00 0.00 19 1013.8
20260504175612 66 166 0.0 0.0 0.00 0.00 0.00 20 1014.1
20260504175108 67 266 0.0 0.0 0.00 0.00 0.00 21 1014.1
20260504174607 68 270 0.0 0.0 0.00 0.00 0.00 21 1014.1
20260504174103 67 188 0.0 0.0 0.00 0.00 0.00 22 1014.1
20260504173600 66 257 0.0 0.0 0.00 0.00 0.00 23 1014.1
20260504173058 66 182 0.0 0.0 0.00 0.00 0.00 24 1014.6
20260504172553 67 216 0.0 0.0 0.00 0.00 0.00 22 1014.6
20260504172050 66 343 0.0 0.0 0.00 0.00 0.00 24 1014.6
20260504171547 65 108 0.0 0.0 0.00 0.00 0.00 26 1015.0
20260504171044 65 90 0.0 0.0 0.00 0.00 0.00 24 1015.0
20260504170539 65 227 0.0 0.0 0.00 0.00 0.00 28 1015.0
20260504150924 57 305 0.0 0.0 0.00 0.00 0.00 35 1015.9
20260504150420 58 22 0.0 0.0 0.00 0.00 0.00 35 1015.9
20260504140847 55 348 0.0 0.0 0.00 0.00 0.00 35 1015.4
20260504140343 54 348 0.0 0.0 0.00 0.00 0.00 37 1015.4
20260504130812 47 6 0.0 0.0 0.00 0.00 0.00 50 1015.4
20260504130308 47 28 0.0 0.0 0.00 0.00 0.00 48 1015.4